Regional Weather Roundup
Issued by NWS Upton, NY

Current Version | Previous Version | Text Only | Print | Product List | Glossary On
Versions: 1 2 3 4 5 6 7 8 9 10 11 12 13 14 15 16 17 18 19 20 21 22 23 24 25 26 27 28 29 30 31 32 33 34 35 36 37 38 39 40 41 42 43 44 45 46 47 48 49 50
012 ASUS41 KOKX 060604 RWROKX REGIONAL WEATHER ROUNDUP NATIONAL WEATHER SERVICE NEW YORK NY 200 AM EDT FRI MAY 06 2016 NOTE: "FAIR" INDICATES FEW OR NO CLOUDS BELOW 12,000 FEET WITH NO SIGNIFICANT WEATHER AND/OR OBSTRUCTIONS TO VISIBILITY. NYZ071-072-176-178-NJZ106-104-060700- NEW YORK CITY METRO AREA CITY SKY/WX TMP DP RH WIND PRES REMARKS CENTRAL PARK CLOUDY 52 42 69 NE13G21 29.69R LAGUARDIA APRT CLOUDY 52 46 80 NE15 29.66R KENNEDY INTL CLOUDY 52 43 71 NE14 29.68R NEWARK/LIBERTY CLOUDY 52 45 77 N10 29.68R BRNX BOT. GARD N/A 52 41 66 N5 29.67F TETERBORO CLOUDY 53 42 66 NE6 29.66S $$ NYZ177-179-078>081-060700- LONG ISLAND NEW YORK CITY SKY/WX TMP DP RH WIND PRES REMARKS FARMINGDALE CLOUDY 49 43 80 NE7 29.67R ISLIP CLOUDY 49 42 77 NE13 29.66S SHIRLEY CLOUDY 48 43 82 N7 29.66F RIVERHEAD N/A 48 45 87 E3 29.66F WESTHAMPTON NOT AVBL EAST HAMPTON CLOUDY 46 42 87 N7 29.66R MONTAUK POINT NOT AVBL $$ NYZ052-065-067-060700- HUDSON VALLEY CITY SKY/WX TMP DP RH WIND PRES REMARKS WHITE PLAINS CLOUDY 51 41 68 NE8 29.66F NEWBURGH CLOUDY 52 46 82 NE7 29.66F MONTGOMERY CLOUDY 53 46 77 NE8 29.65F POUGHKEEPSIE CLOUDY 54 45 71 N3 29.67F ALBANY CLOUDY 54 44 69 N6 29.70F $$ NJZ001-105-106-008-010-013-015-019>022-104-060700- NEW JERSEY CITY SKY/WX TMP DP RH WIND PRES REMARKS NEWARK/LIBERTY CLOUDY 52 45 77 N10 29.68R TETERBORO CLOUDY 53 42 66 NE6 29.66S CALDWELL CLOUDY 52 45 77 NE3 29.69R MORRISTOWN CLOUDY 52 45 76 CALM 29.69R SOMERVILLE CLOUDY 53 46 77 NE5 29.66R SUSSEX CLOUDY 52 45 77 E7 29.68F ANDOVER N/A 52 45 77 CALM 29.69R TRENTON CLOUDY 53 46 77 NE8 29.66S MILLVILLE CLOUDY 50 47 89 NE7 29.66S ATLANTIC CITY CLOUDY 48 46 93 NE15 29.65F WRIGHTSTOWN CLOUDY 51 47 85 E6 29.66S TOMS RIVER CLOUDY 48 43 81 NE10 29.68F BELMAR LGT RAIN 50 44 80 NE6 29.69R $$ PAZ047>061-062-071-060700- EASTERN PENNSYLVANIA CITY SKY/WX TMP DP RH WIND PRES REMARKS PHILADELPHIA CLOUDY 55 45 68 E7 29.68R ALLENTOWN CLOUDY 54 45 71 CALM 29.68R SCRANTON CLOUDY 53 44 71 NE7 29.69S $$ CTZ002-004>006-009-010-012-RIZ004-006-007-MAZ004-011-015-060700- SOUTHERN NEW ENGLAND IN CT CITY SKY/WX TMP DP RH WIND PRES REMARKS BRADLEY INTL CLOUDY 49 42 77 NE10 29.69R HARTFORD CLOUDY 50 43 77 N9 29.69R DANBURY CLOUDY 50 41 71 NE7 29.68F WTRBRY/OXFORD N/A 46 39 76 NE12G17 29.68F BRIDGEPORT CLOUDY 51 42 71 NE13 29.67S MERIDEN CLOUDY 50 42 74 N7 29.68S NEW HAVEN CLOUDY 49 43 80 NE8 29.67F CHESTER CLOUDY 46 43 87 NE8 29.67S GROTON CLOUDY 47 44 90 NE6 29.67R WILLIMANTIC CLOUDY 49 42 77 NE9 29.68S IN RI CITY SKY/WX TMP DP RH WIND PRES REMARKS PROVIDENCE CLOUDY 46 42 86 N14 29.66S BLOCK ISLAND CLOUDY 46 42 86 N17G25 29.66S WESTERLY CLOUDY 48 40 73 NE10 29.67R IN MA CITY SKY/WX TMP DP RH WIND PRES REMARKS BOSTON CLOUDY 46 43 89 N9 29.68F WORCESTER CLOUDY 43 41 93 NE10G20 29.66S WESTFIELD CLOUDY 49 43 80 N8 29.69F PROVINCETOWN CLOUDY 44 43 96 N17G23 29.63S NANTUCKET CLOUDY 47 43 86 N18G25 29.59S $$ ANZ330-335-338-340-345-350-353-355-060700- COASTAL MARINE OBSERVATIONS STATION/POSITION TIME SKY/WX TEMP WIND PRES VSBY WAVE AIR SEA DIR/SP/G HT/PER (UTC) (F) (DEG/KT/KT) (MB) (MI) (FT/S) NY HARB ENTRANCE 0450 50 50 40/ 14/ 16 1004.1 5/ 8 20S FIRE ISLAND 0450 48 48 30/ 17/ 19 1003.7 6/ 8 GREAT SOUTH BAY 0530 49 53 30/ 14/ 17 N/A 23 SSW MONTAUK P 0550 47 46 30/ 16/ 19 1003.6 7/ 7 15 E BARNEGAT LI 0522 49 N/A 7/ 7 HUDSON CANYON 0450 47 50 1002.9 8/ 8 KINGS POINT 0500 51 53 1003.9 EXECUTION ROCKS NOT AVBL CENTRAL LI SOUND 0500 48 10/ 10/ 12 N/A 1/ 4 EASTERN LI SOUND 0500 48 47 30/ 12/ 16 N/A ROBBINS REEF 0500 53 30/ 16/ 19 1003.3 $$ >>>>>>>>>>>>>>>>>>>>>>>>>>>> KEY <<<<<<<<<<<<<<<<<<<<<<<<<<< > < > SKY/WX - SKY CONDITION/PRESENT WEATHER < > TMP - TEMPERATURE IN FAHRENHEIT < > DP - DEWPOINT IN FAHRENHEIT < > RH - RELATIVE HUMIDITY IN PERCENT < > WIND - DIRECTION AND SPEED IN MPH < > PRES - MEAN SEA LEVEL PRESSURE IN INCHES OF HG < > WCI - WIND CHILL INDEX < > VSB - VISIBILITY IN MILES < > HX - HEAT INDEX < > TC - TEMPERATURE IN CELSIUS < > VRB - VARIABLE WIND DIRECTION < > < >>>>>>>>>>>>>>>>>>>>>>>>>>>> KEY <<<<<<<<<<<<<<<<<<<<<<<<<<<

USA.gov is the U.S. government's official web portal to all federal, state and local government web resources and services.